This is the latest recevied weather packets stored in our database for station/object KI2K. If no packets are shown the sender has not sent any weather packets the latest 10 day(s).
| Time | Temp. | Humidity | Pressure | Rain* | Wind** | Luminosity | Snow |
|---|---|---|---|---|---|---|---|
| 1777875981 | 11.11° C | 75% | 1008.6 hPa | 0 mm | - | 0 W/m² | - |
| 1777875677 | 11.11° C | 75% | 1008.3 hPa | 0 mm | - | 0 W/m² | - |
| 1777875375 | 11.11° C | 75% | 1008.6 hPa | 0 mm | - | 0 W/m² | - |
| 1777875071 | 10.56° C | 75% | 1008.6 hPa | 0 mm | - | 0 W/m² | - |
| 1777874768 | 10.56° C | 76% | 1009 hPa | 0 mm | - | 0 W/m² | - |
| 1777874464 | 10.56° C | 76% | 1008.8 hPa | 0 mm | - | 0 W/m² | - |
| 1777874162 | 10.56° C | 76% | 1009.3 hPa | 0 mm | - | 0 W/m² | - |
| 1777873858 | 10.56° C | 76% | 1009.2 hPa | 0 mm | - | 0 W/m² | - |
| 1777873555 | 10.56° C | 76% | 1009.2 hPa | 0 mm | - | 0 W/m² | - |
| 1777873253 | 10.56° C | 75% | 1009.3 hPa | 0 mm | - | 0 W/m² | - |
| 1777872949 | 11.11° C | 75% | 1009.4 hPa | 0 mm | - | 0 W/m² | - |
| 1777872647 | 11.11° C | 74% | 1009.3 hPa | 0 mm | - | 0 W/m² | - |
| 1777872344 | 11.11° C | 73% | 1009.2 hPa | 0 mm | - | 0 W/m² | - |
| 1777872042 | 11.67° C | 73% | 1009.3 hPa | 0 mm | - | 0 W/m² | - |
| 1777871738 | 11.67° C | 72% | 1009.2 hPa | 0 mm | - | 0 W/m² | - |
| 1777871434 | 11.67° C | 72% | 1009.3 hPa | 0 mm | - | 0 W/m² | - |
| 1777871132 | 11.67° C | 71% | 1009.4 hPa | 0 mm | - | 0 W/m² | - |
| 1777870829 | 12.22° C | 71% | 1009.1 hPa | 0 mm | - | 0 W/m² | - |
| 1777870525 | 12.22° C | 70% | 1009.1 hPa | 0 mm | - | 0 W/m² | - |
| 1777870221 | 12.22° C | 70% | 1009.5 hPa | 0 mm | - | 0 W/m² | - |
| 1777869919 | 12.22° C | 69% | 1009.2 hPa | 0 mm | - | 0 W/m² | - |
| 1777869615 | 12.22° C | 69% | 1009.6 hPa | 0 mm | - | 0 W/m² | - |
| 1777869312 | 12.78° C | 69% | 1009.6 hPa | 0 mm | - | 0 W/m² | - |
| 1777869010 | 12.78° C | 69% | 1009.5 hPa | 0 mm | - | 0 W/m² | - |
| 1777868707 | 12.78° C | 68% | 1009.6 hPa | 0 mm | - | 0 W/m² | - |
* Rain latest hour (hover to see other rain measurements)
** Current wind speed in m/s (hover to see current wind gust speed)